Probability
0 0 0 0 0 0 0 0 0 0 0 0 0 0 0 0 0 0 0 0 0 0 0 0 0 0 0 0 0 0 0 0 0 0 0 0 0 0 0 0 0 0 0 0
0 0 0 0 0 0 0 0 0 0 0 0 0 0 0 0 0 0 0 0 0 0 0 0 0 0 0 0 0 0 0 0 0 0 0 0 0 0 0 0 0 0 0 0
0 0 0 0 0 0 0 0 0 0 0 0 0 0 0 0 0 0 0 0 0 0 0 0 0 0 0 0 0 0 0 0 0 0 0 0 0 0 0 0 0 0 0 0
0 0 0 0 0 0 0 0 0 0 0 0 0 0 0 0 0 0 0 0 0 0 0 0 0 0 0 0 0 0 0 0 0 0 0 0 0 0 0 0 0 0 0 0
0 0 0 0 0 0 0 0 0 0 0 0 0 0 0 0 0 0 0 0 0 0 0 0 0 0 0 0 0 0 0 0 0 0 0 0 0 0 0 0 0 0 0 0
0 0 0 0 0 0 0 0 0 0 0 0 0 0 0 0 0 0 0 0 0 0 0 0 0 0 0 0 0 0 0 0 0 0 0 0 0 0 0 0 0 0 0 0
0 0 0 0 0 0 0 0 0 0 0 0 0 0 0 0 0 0 0 0 0 0 0 0 0 0 0 0 0 0 0 0 0 0 0 0 0 0 0 0 0 0 0 0
0 0 0 0 0 0 0 0 0 0 0 0 0 0 0 0 0 0 0 0 0 0 0 0 0 0 0 0 0 0 0 0 0 0 0 0 0 0 0 0 0 0 0 0
0 0 0 0 0 0 0 0 0 0 0 0 0 0 0 0 0 0 0 0 0 0 0 0 0 0 0 0 0 0 0 0 0 0 0 0 0 0 0 0 0 0 0 0
0 0 0 0 0 0 0 0 0 0 0 0 0 0 0 0 0 0 0 0 0 0 0 0 0 0 0 0 0 0 0 0 0 0 0 0 0 0 0 0 0 0 0 0
0 0 0 0 0 0 0 0 0 0 0 0 0 0 0 0 0 0 0 0 0 0 0 0 0 0 0 0 0 0 0 0 0 0 0 0 0 0 0 0 0 0 0 0
0 0 0 0 0 0 0 0 0 0 0 0 0 0 0 0 0 0 0 0 0 0 0 0 0 0 0 0 0 0 0 0 0 0 0 0 0 0 0 0 0 0 0 0
0 0 0 0 0 0 0 0 0 0 0 0 0 0 0 0 0 0 0 0 0 0 0 0 0 0 0 0 0 0 0 0 0 0 0 0 0 0 0 0 0 0 0 0
0 0 0 0 0 0 0 0 0 0 0 0 0 0 0 0 0 0 0 0 0 0 0 0 0 0 0 0 0 0 0 0 0 0 0 0 0 0 0 0 0 0 0 0
0 0 0 0 0 0 0 0 0 0 0 0 0 0 0 0 0 0 0 0 0 0 0 0 0 0 0 0 0 0 0 0 0 0 0 0 0 0 0 0 0 0 0 0
0 0 0 0 0 0 0 0 0 0 0 0 0 0 0 0 0 0 0 0 0 0 0 0 0 0 0 0 0 0 0 0 0 0 0 0 0 0 0 0 0 0 0 0
0 0 0 0 0 0 0 0 0 0 0 0 0 0 0 0 0 0 0 0 0 0 0 0 0 0 0 0 0 0 0 0 0 0 0 0 0 0 0 0 0 0 0 0
0 0 0 0 0 0 0 0 0 0 0 0 0 0 0 0 0 0 0 0 0 0 0 0 0 0 0 0 0 0 0 0 0 0 0 0 0 0 0 0 0 0 0 0
0 0 0 0 0 0 0 0 0 0 0 0 0 0 0 0 0 0 0 0 0 0 0 0 0 0 0 0 0 0 0 0 0 0 0 0 0 0 0 0 0 0 0 0
0 0 0 0 0 0 0 0 0 0 0 0 0 0 0 0 0 0 0 0 0 0 0 0 0 0 0 0 0 0 0 0 0 0 0 0 0 0 0 0 0 0 0 0
0 0 0 0 0 0 0 0 0 0 0 0 0 0 0 0 0 0 0 0 0 0 0 0 0 0 0 0 0 0 0 0 0 0 0 0 0 0 0 0 0 0 0 0
0 0 0 0 0 0 0 0 0 0 0 0 0 0 0 0 0 0 0 0 0 0 0 0 0 0 0 0 0 0 0 0 0 0 0 0 0 0 0 0 0 0 0 0
0 0 0 0 0 0 0 0 0 0 0 0 0 0 0 0 0 0 0 0 0 0 0 0 0 0 0 0 0 0 0 0 0 0 0 0 0 0 0 0 0 0 0 0
0 0 0 0 0 0 0 0 0 0 0 0 0 0 0 0 0 0 0 0 0 0 0 0 0 0 0 0 0 0 0 0 0 0 0 0 0 0 0 0 0 0 0 0
0 0 0 0 0 0 0 0 0 0 0 0 0 0 0 0 0 0 0 0 0 0 0 0 0 0 0 0 0 0 0 0 0 0 0 0 0 0 0 0 0 0 0 0
0 0 0 0 0 0 0 0 0 0 0 0 0 0 0 0 0 0 0 0 0 0 0 0 0 0 0 0 0 0 0 0 0 0 0 0 0 0 0 0 0 0 0 0
Wind_Speed
4 5 2 1 2 3 5 5 4 2 1 4 4 3 2 2 4 4 3 3 3 3 3 4 5 4 3 4 4 3 3 3 3 2 1 2 2 2 3 3 4 4 4 3
6 5 2 1 3 5 6 6 3 2 3 3 3 1 1 2 3 4 4 3 2 3 4 4 5 5 5 4 4 3 3 3 3 2 1 1 1 1 2 2 3 4 4 3
5 2 2 4 5 5 3 4 4 3 2 3 3 2 1 1 2 3 3 3 3 3 3 3 4 5 5 6 5 4 3 3 3 2 2 2 2 1 2 3 3 4 4 3
4 4 3 5 3 2 1 1 3 4 3 1 2 2 4 2 1 2 2 2 2 2 3 3 3 4 5 5 4 4 4 4 3 3 2 2 2 1 2 2 2 3 4 4
3 4 4 4 2 1 1 1 2 2 3 1 1 2 4 2 2 2 1 1 2 2 2 3 3 3 4 4 4 4 4 5 4 3 2 2 1 1 1 2 2 3 3 4
2 2 2 2 2 1 2 3 4 4 3 1 2 3 4 3 4 3 1 1 1 2 2 3 3 3 4 4 4 4 5 5 4 3 3 2 1 2 2 3 3 3 3 3
5 5 5 3 3 4 4 4 4 4 2 4 1 2 5 2 2 4 4 2 1 1 2 2 3 4 5 5 5 4 5 5 5 4 3 3 2 2 2 2 2 3 3 3
3 4 5 5 1 0 1 3 5 3 3 2 1 3 3 1 1 2 3 3 2 1 1 2 2 2 3 4 5 5 5 4 4 4 3 3 3 2 2 3 3 2 2 3
2 1 4 3 2 1 2 2 2 3 2 0 3 3 4 1 2 2 2 2 0 0 1 2 2 2 3 4 4 4 4 4 5 4 3 3 3 3 3 3 3 2 3 3
2 1 4 4 3 4 2 3 3 4 3 1 3 3 3 2 3 1 1 2 1 1 0 1 1 2 2 3 3 4 4 4 4 4 3 3 3 2 2 2 3 3 4 4
2 3 3 4 3 2 3 2 3 3 2 3 2 6 3 4 4 4 4 3 2 2 1 1 1 1 2 2 3 3 3 4 4 4 3 3 3 3 3 3 3 3 4 4
1 3 1 2 2 1 1 1 3 3 1 1 2 6 3 2 3 3 3 2 2 2 1 1 1 1 2 2 3 3 3 4 4 4 3 3 3 3 3 3 3 4 4 4
2 4 3 5 4 3 1 0 1 3 3 2 3 7 2 1 1 2 2 2 2 2 1 1 1 1 2 2 2 2 3 3 3 3 3 4 3 3 4 4 4 4 4 4
4 3 3 5 4 2 2 2 1 3 3 3 6 7 6 4 3 3 3 3 3 2 1 1 1 2 2 2 2 2 2 3 3 3 3 4 4 4 3 4 4 4 4 4
4 2 1 2 2 1 3 3 3 4 5 6 6 6 9 6 5 4 4 3 3 3 2 2 2 2 2 2 2 2 2 3 3 3 3 3 3 3 3 3 4 4 4 4
3 3 1 3 3 2 4 6 5 6 5 6 6 9 8 4 3 3 4 4 4 4 4 3 3 2 2 2 2 2 2 2 2 2 3 3 4 4 4 4 4 4 5 5
2 4 2 3 5 5 7 8 7 5 6 7 9 9 3 2 4 5 5 4 5 5 4 3 3 3 2 2 1 1 1 1 2 2 3 3 4 4 4 4 4 5 5 5
4 4 3 1 4 3 8 1 5 5 5 7 7 5 4 5 4 4 4 5 5 4 4 4 3 2 2 1 1 1 1 1 1 2 3 3 3 3 4 4 4 5 4 4
3 5 4 2 1 9 10 4 5 5 6 7 8 7 5 3 1 4 4 5 5 5 4 3 3 2 1 1 1 0 1 1 2 2 3 3 3 3 3 4 4 4 4 4
3 4 5 4 2 7 6 2 3 3 6 5 7 7 5 3 2 5 3 3 3 3 2 2 2 1 1 1 0 1 0 1 2 2 3 2 2 2 3 3 3 3 3 3
2 2 3 4 5 12 8 3 4 4 7 4 6 6 6 7 7 3 1 2 3 3 2 2 2 2 2 1 1 1 1 2 3 2 2 2 2 2 2 3 3 3 3 3
9 7 7 6 5 12 6 8 9 10 2 3 4 5 6 6 4 3 2 2 2 2 2 2 2 2 1 1 1 1 2 3 2 1 1 2 2 2 2 2 3 2 2 3
9 10 8 12 11 5 7 9 7 4 4 4 4 5 5 5 5 4 4 3 3 3 3 3 3 2 1 1 2 3 3 2 1 1 1 2 2 2 2 2 2 2 2 2
6 4 5 7 11 8 8 8 6 5 6 5 5 4 5 6 6 5 4 4 4 3 3 3 3 3 2 2 2 3 2 1 1 1 2 2 1 2 2 2 2 2 2 2
8 7 6 8 9 6 8 11 11 8 6 5 5 5 6 6 6 6 5 5 4 4 3 3 4 4 4 2 2 2 1 1 1 1 1 2 2 2 2 2 2 3 3 3
9 11 12 12 10 8 7 6 8 8 8 8 7 6 5 6 7 6 5 4 4 4 3 3 4 4 4 3 3 2 1 2 2 2 2 2 2 2 2 2 3 4 4 6
Wind_Direction
27 61 66 198 163 127 127 123 113 103 89 88 115 125 139 123 100 109 103 92 82 64 30 29 30 31 41 39 43 43 40 33 44 44 32 30 23 18 22 21 17 15 14 14
53 33 337 61 93 104 113 116 111 72 52 86 105 90 85 102 123 139 133 117 99 64 36 33 33 29 30 30 26 35 33 32 41 39 28 31 12 21 23 14 12 7 8 6
83 334 2 77 72 96 91 151 165 147 61 67 94 340 247 102 85 89 97 102 89 85 58 30 28 28 29 24 14 15 15 27 34 44 55 45 36 15 12 5 5 358 358 1
48 344 47 70 64 89 133 156 150 145 124 173 164 229 253 210 149 79 76 79 79 68 60 45 30 25 26 16 10 17 16 24 21 35 53 55 43 2 326 344 351 350 357 360
33 1 45 55 2 92 145 117 120 128 125 84 146 186 265 185 205 220 166 99 70 61 64 47 30 23 24 21 18 14 22 29 24 28 40 60 40 349 346 356 358 356 1 8
37 360 35 359 338 63 109 68 53 55 81 210 214 188 261 225 216 195 165 112 76 58 53 43 28 26 24 19 21 18 25 24 20 26 28 39 18 2 10 4 3 359 358 0
12 6 0 6 41 21 64 90 58 22 12 250 224 199 254 256 233 182 166 148 98 70 60 39 25 18 16 12 14 16 23 18 11 16 22 25 18 16 12 355 355 357 358 354
57 349 344 2 36 82 63 109 140 169 209 279 320 231 260 320 56 109 131 137 117 61 35 30 19 13 14 11 15 15 15 12 9 11 7 11 12 11 8 2 355 353 350 344
111 304 325 348 346 53 93 84 129 121 73 334 275 291 304 67 45 81 116 115 112 18 29 25 5 11 15 13 11 12 14 8 6 5 2 11 14 13 8 -0 358 360 355 352
133 113 323 326 16 23 77 124 89 102 125 263 295 274 251 231 231 221 204 206 235 241 339 350 344 359 7 10 7 11 13 6 358 358 2 8 4 7 6 12 9 3 357 357
76 106 342 15 31 355 25 58 89 98 139 155 263 272 232 215 206 205 220 221 220 233 257 287 318 338 357 9 9 5 6 4 360 357 1 10 8 12 16 15 4 358 357 355
48 101 34 302 285 305 108 126 133 140 227 188 206 270 287 216 213 206 222 231 228 230 243 265 294 337 350 354 357 360 2 1 355 357 6 7 9 12 15 10 359 359 1 359
86 96 61 355 339 348 4 334 128 128 125 165 192 259 306 347 285 230 217 219 231 245 272 301 320 329 329 332 340 351 2 359 355 5 12 9 6 9 7 358 352 355 357 359
96 93 155 192 222 218 270 284 200 144 165 205 223 247 279 273 264 257 237 222 226 234 238 260 288 296 306 320 329 342 357 357 360 9 14 10 1 0 356 352 354 355 357 1
89 108 270 278 290 263 245 254 230 206 204 205 230 242 260 253 238 234 227 224 226 235 239 241 249 263 287 310 325 346 350 351 359 9 10 356 351 354 355 357 0 0 360 359
86 116 43 329 332 313 286 265 238 234 228 224 249 269 260 255 226 225 223 217 225 236 242 246 250 253 260 280 307 336 342 343 353 2 353 346 355 358 359 357 2 2 3 3
108 114 93 295 325 358 292 247 204 206 212 195 220 238 240 237 230 226 224 223 228 233 237 237 239 240 243 251 278 290 310 341 3 3 356 357 1 3 2 2 7 1 0 4
129 115 116 13 21 272 249 229 184 205 241 218 230 240 230 237 244 242 223 215 229 231 232 236 236 235 237 242 277 293 358 8 1 359 354 354 357 1 1 4 1 355 356 359
136 132 116 112 275 281 290 249 186 193 268 223 219 239 245 252 300 279 237 213 219 218 220 224 218 207 203 234 267 32 12 4 355 341 338 341 346 352 355 353 348 347 350 350
81 103 119 132 176 245 251 192 159 110 284 235 197 219 218 157 238 264 235 207 217 212 209 202 175 149 176 253 207 128 300 333 312 308 315 332 339 339 338 333 334 343 341 340
144 120 154 171 222 260 250 182 131 170 242 201 189 205 193 197 218 235 198 201 209 204 197 170 155 172 211 210 151 177 266 276 285 303 320 332 331 325 320 324 332 338 337 340
176 171 188 162 201 253 206 152 189 215 212 179 192 199 202 217 231 233 226 218 205 198 191 170 173 202 215 158 161 216 264 284 313 318 318 320 323 321 326 326 328 334 333 333
201 192 185 192 214 238 184 200 215 192 200 209 201 206 200 213 226 229 228 221 213 202 198 190 189 202 217 197 189 225 266 305 321 313 298 304 321 326 325 317 316 324 327 321
235 192 195 243 255 247 236 240 243 217 217 220 212 210 201 215 226 227 226 222 218 212 205 199 191 204 233 238 230 240 269 299 220 249 279 300 310 318 326 315 305 302 302 299
211 177 202 248 264 280 257 231 230 227 223 227 227 215 210 212 225 222 224 222 216 211 204 194 201 217 232 234 243 256 248 186 221 250 279 295 294 298 307 304 290 287 276 281
192 184 187 223 219 203 232 217 204 207 218 218 215 225 223 211 220 219 221 218 209 208 199 202 213 223 230 224 240 251 223 192 199 238 258 265 274 284 291 299 310 302 294 305